080  
ASUS41 KGYX 260710  
RWRGYX  
WEATHER ROUNDUP FOR MAINE AND NEW HAMPSHIRE  
NATIONAL WEATHER SERVICE GRAY ME  
300 AM EDT FRI MAY 26 2017  
 
MEZ002-005-006-010-012-015-018-020-021-024-026-027-029-260800-  
MAINE  
 
CITY SKY/WX TMP DP RH WIND PRES REMARKS
 
PORTLAND LGT RAIN 49 47 93 E15G30 29.61F FOG  
SANFORD HVY RAIN 48 47 96 NE7 29.65R FOG  
BAR HARBOR LGT RAIN 47 46 97 NE16G23 29.72F FOG  
WISCASSET CLOUDY 50 48 93 NE8G20 29.65F  
ROCKLAND LGT RAIN 47 46 97 NE17G26 29.66F FOG  
FRYEBURG LGT RAIN 51 50 96 NE12 29.65F FOG  
LEWISTONAUBURN LGT RAIN 51 49 92 E13 29.65F FOG  
AUGUSTA LGT RAIN 49 47 93 NE16 29.68F FOG  
WATERVILLE LGT RAIN 48 48 100 NE13G20 29.66F  
BANGOR LGT RAIN 48 47 96 NE12 29.75F FOG  
GREENVILLE N/A 48 47 96 E16G26 29.76F  
MILLINOCKET LGT RAIN 50 49 96 E8 29.84S  
HOULTON CLOUDY 49 46 90 NE6 29.84F  
PRESQUE ISLE CLOUDY 49 44 83 NE8 29.88F  
FRENCHVILLE CLOUDY 48 36 63 E12G18 29.88F  
CARIBOU CLOUDY 50 42 74 NE7 29.88F  

 
 
NHZ002-005-008-009-011-012-014-260800-  
NEW HAMPSHIRE  
 
CITY SKY/WX TMP DP RH WIND PRES REMARKS
 
PORTSMOUTH LGT RAIN 48 47 95 NE21G28 29.55F FOG  
ROCHESTER HVY RAIN 48 45 89 NE12G17 29.60S FOG  
NASHUA RAIN 49 49 100 N10 29.58F  
MANCHESTER RAIN 50 46 86 W6 29.60R FOG  
CONCORD RAIN 49 47 93 N6 29.60F FOG  
LACONIA RAIN 50 49 96 E14 29.60  
PLYMOUTH TSTM 54 47 79 E9G17 29.60F  
BERLIN CLOUDY 53 46 77 CALM 29.66F  
WHITEFIELD CLOUDY 53 45 74 E10G20 29.61F  
JAFFREY HVY RAIN 48 48 100 N8 29.57F FOG  
KEENE HVY RAIN 49 49 100 N6 29.58F  
LEBANON RAIN 52 51 97 S7 29.62R FOG  
MT WASHINGTON LGT RAIN 34 34 100 E22 N/A VSB 1/16  

 
 
VTZ005-007-008-260800-  
VERMONT  
 
CITY SKY/WX TMP DP RH WIND PRES REMARKS
 
ST JOHNSBURY N/A 56 46 69 MISG 29.58F  
MONTPELIER CLOUDY 50 50 100 W3 29.63F  
BURLINGTON CLOUDY 56 52 86 N6 29.58F  

 
 
MAZ007-012-024-CTZ003-RIZ002-NYZ038-NYZ072-260800-  
SOUTHERN NEW ENGLAND AND NY  
 
CITY SKY/WX TMP DP RH WIND PRES REMARKS
 
BOSTON DRIZZLE 50 49 96 N7 29.56R FOG  
WORCESTER LGT RAIN 46 44 93 NE15G25 29.49F  
NANTUCKET CLOUDY N/A N/A N/A SE7 29.48F FOG  
PROVIDENCE LGT RAIN 51 51 100 N16G22 29.48F  
HARTFORD LGT RAIN 50 49 96 N12 29.50F  
ALBANY LGT RAIN 53 50 89 N8 29.53F  
NEW YORK CITY LGT RAIN 58 55 90 N6 29.45S  

 
 
ANZ081-ANZ082-ANZ150-NHZ014-MEZ023>029-260800-  
COASTAL MARINE OBSERVATIONS  
 
STATION/POSITION TIME TEMP WIND PRES WAVE
 
AIR SEA DIR/SP/G HT/PER  
(UTC) (F) (DEG/KT/KT) (MB) (FT/S)  
MOUNT DESERT ROC 0700 45 1003.8F  
MATINICUS ROCK 0600 45 70/ 32/ 34 1003.5F  
ISLE OF SHOALS 0600 48 40/ 8/ 17 1002.7R  
JEFFREYS LEDGE 0636 47 N/A 8/ 8  
CASHES LEDGE BUO 0650 47 47 999.8F 10/ 8  
GEORGES BANK BUO 0550 55 45 1003.1 8/10  

 
   
............KEY...........
 
 
WCI - WIND CHILL  
TC - TEMPERATURE IN CELSIUS  
VSB - VISIBILITY
IN MILES  
HX - HEAT INDEX  
FAIR- INDICATES FEW OR NO CLOUDS BELOW 12,000 FT, WITH NO  
SIGNIFICANT WEATHER AND/OR S TO VISIBILITY.  
 
 
 
CLICK HERE TO GO TO PREVIOUS BULLETINS.

The Nexlab ME Page
The Nexlab NH Page Main Text Page